KRKDKAUG

Guest
Details From KRKD - Knox Co Rgnl
To KAUG - Augusta State
Flight Number -
Tags Routegen
Created
Modified
Stats Distance 34 nm / 63 km
Max Altitude 0 ft / 0 m
Waypoints 2
Social Downloads 2
Likes 0
Share VATSIM

Download

Looking for another format? Having issues loading an existing format? Contact us
Advertisement - Login to hide

Notes

None

Route

KRKD KAUG

ID Type Via Altitude (ft/m) Position (lat/lon) Dist (leg/tot) Name
O KRKD APT - 0 / 0 44.06152 / -69.10837 - / 0 nm
O KAUG APT - 0 / 0 44.32766 / -69.80368 33 / 33 nm

Altitude Profile

Advertisement - Login to hide

KRKD

Details ICAO KRKD (RKD)
Name KNOX CO RGNL
Region United States
Timezone America/New_York (UTC-4.0)
Stats Elevation 56 ft / 17 m (AMSL)
Location 44.060200° -69.099200°
Runways 2
Magnetic Variation 15.690° W

METAR

KRKD 190756Z AUTO 26003KT 10SM CLR 03/03 A3031 RMK AO2 SLP265 T00330028

Decode

TAF

TAF KRKD 190520Z 1906/2006 02005KT P6SM FEW250 FM191500 11006KT P6SM FEW250 FM191800 19007KT P6SM SKC

Decode

Departure Runways

ID Width Length Bearing (true/mag) Surface Threshold Overrun Markings Lighting
03 100 ft / 30 m 4,004 ft / 1,220 m 13.39° / 29.08° ASPHALT 0 ft / 0 m 0 ft / 0 m APP EDGE THRESHOLD REIL-OMNI
13 100 ft / 30 m 5,012 ft / 1,528 m 110.98° / 126.68° ASPHALT 0 ft / 0 m 187 ft / 57 m PREC-APP EDGE THRESHOLD MALSR
21 100 ft / 30 m 4,004 ft / 1,220 m 193.39° / 209.08° ASPHALT 0 ft / 0 m 0 ft / 0 m APP EDGE THRESHOLD
31 100 ft / 30 m 5,012 ft / 1,528 m 291.00° / 306.69° ASPHALT 0 ft / 0 m 0 ft / 0 m APP EDGE THRESHOLD REIL-OMNI

KAUG

Details ICAO KAUG (AUG)
Name Augusta State Airport
Region United States
Timezone America/New_York (UTC-4.0)
Stats Elevation 352 ft / 107 m (AMSL)
Location 44.320300° -69.796400°
Runways 2
Magnetic Variation 15.526° W

METAR

KAUG 190753Z AUTO 36003KT 10SM CLR 04/03 A3033 RMK AO2 SLP272 T00390028

Decode

TAF

TAF KAUG 190520Z 1906/2006 23005KT P6SM SKC

Decode

Destination Runways

ID Width Length Bearing (true/mag) Surface Threshold Overrun Markings Lighting
08 75 ft / 23 m 2,706 ft / 825 m 62.00° / 77.52° ASPHALT 0 ft / 0 m 0 ft / 0 m APP EDGE THRESHOLD
17 100 ft / 30 m 5,006 ft / 1,526 m 153.19° / 168.71° ASPHALT 0 ft / 0 m 184 ft / 56 m PREC-APP EDGE THRESHOLD MALSR
26 75 ft / 23 m 2,706 ft / 825 m 242.00° / 257.53° ASPHALT 0 ft / 0 m 0 ft / 0 m APP EDGE THRESHOLD
35 100 ft / 30 m 5,006 ft / 1,526 m 333.19° / 348.72° ASPHALT 0 ft / 0 m 167 ft / 51 m PREC-APP EDGE THRESHOLD REIL-OMNI

Approach Navaids

Runway Type Ident Frequency Range Bearing (true/mag) Slope Elevation
17 LOC-ILS IAUG 108.70 MHz 18 nm / 33 km 153.19° / 168.72 ° - 352 ft / 107 m (AMSL)
17 GS IAUG 108.70 MHz 10 nm / 19 km 153.19° / 168.72 ° 3.00° 352 ft / 107 m (AMSL)
17 OM OM - - 153.19° / 168.71 ° - 239 ft / 73 m (AMSL)
17 MM MM - - 153.19° / 168.71 ° - 352 ft / 107 m (AMSL)

Popular Alternatives